Flag for Canada Weather past 2 weeks in Niagara Falls, Ontario, Canada

Now
75 °F

Broken clouds.


Feels Like: 78 °F
Forecast: 61 / 75 °F
Wind: 12 mph from Northwest

Location: Niagara Falls International Airport

Current Time: Aug 27, 2014 at 3:31:05 PM

Latest Report: Aug 27, 2014 at 2:53 PM


Visibility: 10 mi

Pressure: 30.01 "Hg

Humidity: 50%

Dew point: 55 °F

Location of Niagara FallsLocation

Historic Weather in Niagara Falls — Graph

°F

Niagara Falls temperature yesterday

Maximum temperature yesterday: 84 °F (at 2:53 PM)
Minimum temperature yesterday: 66 °F (at 5:53 AM)
Average temperature yesterday: 75 °F

Past Weeks' High & Low Weather Summary

 TemperatureHumidityPressure
High84 °F (Aug 26, 2:53 PM)97% (Aug 23, 1:53 AM)30.18 "Hg (Aug 23, 1:53 AM)
Low52 °F (Aug 14, 5:53 AM)41% (Aug 15, 2:53 PM)29.68 "Hg (Aug 12, 3:53 PM)
Average68 °F75%29.95 "Hg
* Reported Aug 12 1:53 PM — Aug 27 1:53 PM, Niagara Falls, Weather by CustomWeather, © 2014

Note: Actual official high and low records may vary slightly from our data, if they occured in-between our weather recording intervals... More about our weather records

Advertising

Niagara Falls weather history for previous 24 hours

 ConditionsComfort  
Time TempWeatherWind HumidityBarometerVisibility
1:53 PM
Aug 27
73 °FScattered clouds.5 mph53%30.03 "Hg10 mi
12:53 PM72 °FScattered clouds.8 mph57%30.03 "Hg10 mi
11:53 AM70 °FPartly sunny.6 mph66%30.04 "Hg10 mi
10:53 AM69 °FPartly sunny.6 mph68%30.05 "Hg10 mi
9:53 AM68 °FPartly sunny.8 mph70%30.05 "Hg10 mi
8:53 AM67 °FPartly sunny.8 mph73%30.04 "Hg10 mi
7:53 AM68 °FPartly sunny.6 mph76%30.04 "Hg10 mi
7:01 AM69 °FPassing clouds.5 mph73%30.04 "Hg10 mi
5:53 AM69 °FOvercast.No wind79%30.01 "Hg10 mi
4:53 AM69 °FOvercast.5 mph79%30.01 "Hg10 mi
3:53 AM70 °FOvercast.8 mph87%30.00 "Hg8 mi
2:53 AM74 °FFog.9 mph91%29.99 "Hg5 mi
1:53 AM73 °FLight rain. Fog.7 mph90%29.98 "Hg6 mi
12:53 AM75 °FOvercast.9 mph82%29.98 "Hg9 mi
11:53 PM
Aug 26
73 °FClear.8 mph84%29.97 "Hg9 mi
10:53 PM74 °FPartly cloudy.8 mph82%29.98 "Hg10 mi
9:53 PM76 °FPartly cloudy.9 mph72%29.98 "Hg10 mi
8:53 PM78 °FCloudy.12 mph69%29.98 "Hg10 mi
7:53 PM80 °FBroken clouds.13 mph64%29.99 "Hg10 mi
6:53 PM82 °FPartly sunny.13 mph60%29.99 "Hg10 mi
5:53 PM84 °FScattered clouds.15 mph57%30.00 "Hg10 mi
4:53 PM84 °FScattered clouds.17 mph57%30.01 "Hg10 mi
3:53 PM84 °FPassing clouds.21 mph55%30.02 "Hg10 mi
Weather by CustomWeather, © 2014

See weather overviewHow to use our weather pages